User: anonymous   Login
Location: Unspecified
(0.0000°N, 0.0000°E)
Time: 22:30:14
(UTC+00:00)
Language:

OBJECT C - Orbit

View from above orbital plane
View from above orbital plane
View from above satellite
View from above satellite

Ground track
Ground track

The orbit data is extracted from the following two-line orbital elements,

1 42827U 17042C   19081.97117486  .00000340  00000-0  39783-4 0  9990
2 42827  97.5757 338.4930 0015088 355.9058   4.2034 14.91023742 91839
Epoch (UTC): 22 March 2019 23:18:29
Eccentricity: 0.0015088
inclination: 97.5757°
perigee height: 584 km
apogee height: 605 km
right ascension of ascending node: 338.4930°
argument of perigee: 355.9058°
revolutions per day: 14.91023742
mean anomaly at epoch: 4.2034°
orbit number at epoch: 9183

The dashed part of the orbit path shows where the satellite is in the earth's shadow,  

DLR